Time,TemperatureF,DewpointF,PressureIn,WindDirection,WindDirectionDegrees,WindSpeedMPH,WindSpeedGustMPH,Humidity,HourlyPrecipIn,Conditions,Clouds,dailyrainin,SoftwareType,DateUTC
2013-11-10 00:00:00,30.5,27.6,30.33,WNW,292,0.0,0.0,89,0.00,,,0.00,Wunderground v.1.15,2013-11-10 05:00:00,
2013-11-10 00:05:00,30.4,27.5,30.34,WNW,292,0.0,0.0,89,0.00,,,0.00,Wunderground v.1.15,2013-11-10 05:05:00,
2013-11-10 00:10:00,30.3,27.4,30.34,WNW,292,0.0,0.0,89,0.00,,,0.00,Wunderground v.1.15,2013-11-10 05:10:00,
2013-11-10 00:15:00,30.2,27.3,30.33,WNW,292,0.0,0.0,89,0.00,,,0.00,Wunderground v.1.15,2013-11-10 05:15:00,
2013-11-10 00:20:00,30.1,27.3,30.33,WNW,292,0.0,0.0,89,0.00,,,0.00,Wunderground v.1.15,2013-11-10 05:20:00,
2013-11-10 00:25:00,30.0,27.4,30.33,WNW,292,0.0,0.0,90,0.00,,,0.00,Wunderground v.1.15,2013-11-10 05:25:00,
2013-11-10 00:30:00,29.9,27.1,30.33,WNW,292,0.0,0.0,89,0.00,,,0.00,Wunderground v.1.15,2013-11-10 05:30:00,
2013-11-10 00:40:00,29.7,27.1,30.33,WNW,292,0.0,0.0,90,0.00,,,0.00,Wunderground v.1.15,2013-11-10 05:40:00,
2013-11-10 00:45:00,29.6,27.0,30.33,WNW,292,0.0,0.0,90,0.00,,,0.00,Wunderground v.1.15,2013-11-10 05:45:00,
2013-11-10 00:50:00,29.5,26.9,30.33,WNW,292,0.0,0.0,90,0.00,,,0.00,Wunderground v.1.15,2013-11-10 05:50:00,
2013-11-10 00:55:00,29.3,26.7,30.32,WNW,292,0.0,0.0,90,0.00,,,0.00,Wunderground v.1.15,2013-11-10 05:55:00,
2013-11-10 01:00:00,29.4,26.8,30.33,WNW,292,0.0,0.0,90,0.00,,,0.00,Wunderground v.1.15,2013-11-10 06:00:00,
2013-11-10 01:10:00,29.3,26.7,30.33,WNW,292,0.0,0.0,90,0.00,,,0.00,Wunderground v.1.15,2013-11-10 06:10:00,
2013-11-10 01:15:00,29.2,26.6,30.33,WNW,292,0.0,0.0,90,0.00,,,0.00,Wunderground v.1.15,2013-11-10 06:15:00,
2013-11-10 01:25:00,29.0,26.4,30.32,WNW,292,0.0,0.0,90,0.00,,,0.00,Wunderground v.1.15,2013-11-10 06:25:00,
2013-11-10 01:30:00,29.0,26.4,30.32,WNW,292,0.0,0.0,90,0.00,,,0.00,Wunderground v.1.15,2013-11-10 06:30:00,
2013-11-10 01:35:00,28.9,26.3,30.33,WNW,292,0.0,0.0,90,0.00,,,0.00,Wunderground v.1.15,2013-11-10 06:35:00,
2013-11-10 01:40:00,28.8,26.5,30.32,WNW,292,0.0,0.0,91,0.00,,,0.00,Wunderground v.1.15,2013-11-10 06:40:00,
2013-11-10 01:45:00,28.9,26.6,30.33,WNW,292,0.0,0.0,91,0.00,,,0.00,Wunderground v.1.15,2013-11-10 06:45:00,
2013-11-10 01:55:00,28.8,26.5,30.32,WNW,292,0.0,0.0,91,0.00,,,0.00,Wunderground v.1.15,2013-11-10 06:55:00,
2013-11-10 02:00:00,28.7,26.4,30.33,WNW,292,0.0,0.0,91,0.00,,,0.00,Wunderground v.1.15,2013-11-10 07:00:00,
2013-11-10 02:10:00,28.7,26.4,30.32,WNW,292,0.0,0.0,91,0.00,,,0.00,Wunderground v.1.15,2013-11-10 07:10:00,
2013-11-10 02:15:00,28.6,26.3,30.32,WNW,292,0.0,0.0,91,0.00,,,0.00,Wunderground v.1.15,2013-11-10 07:15:00,
2013-11-10 02:20:00,28.5,26.2,30.32,WNW,292,0.0,0.0,91,0.00,,,0.00,Wunderground v.1.15,2013-11-10 07:20:00,
2013-11-10 02:25:00,28.4,26.1,30.32,WNW,292,0.0,0.0,91,0.00,,,0.00,Wunderground v.1.15,2013-11-10 07:25:00,
2013-11-10 02:30:00,28.4,26.1,30.32,WNW,292,0.0,0.0,91,0.00,,,0.00,Wunderground v.1.15,2013-11-10 07:30:00,
2013-11-10 02:40:00,28.4,26.1,30.33,WNW,292,0.0,0.0,91,0.00,,,0.00,Wunderground v.1.15,2013-11-10 07:40:00,
2013-11-10 02:45:00,28.3,26.0,30.32,WNW,292,0.0,0.0,91,0.00,,,0.00,Wunderground v.1.15,2013-11-10 07:45:00,
2013-11-10 02:55:00,28.3,26.0,30.32,WNW,292,0.0,0.0,91,0.00,,,0.00,Wunderground v.1.15,2013-11-10 07:55:00,
2013-11-10 03:00:00,28.3,26.0,30.32,WNW,292,0.0,0.0,91,0.00,,,0.00,Wunderground v.1.15,2013-11-10 08:00:00,
2013-11-10 03:05:00,28.3,26.0,30.33,WNW,292,0.0,0.0,91,0.00,,,0.00,Wunderground v.1.15,2013-11-10 08:05:00,
2013-11-10 03:10:00,28.2,25.9,30.33,WNW,292,0.0,0.0,91,0.00,,,0.00,Wunderground v.1.15,2013-11-10 08:10:00,
2013-11-10 03:15:00,28.2,25.9,30.33,WNW,292,0.0,0.0,91,0.00,,,0.00,Wunderground v.1.15,2013-11-10 08:15:00,
2013-11-10 03:25:00,28.1,25.8,30.33,WNW,292,0.0,0.0,91,0.00,,,0.00,Wunderground v.1.15,2013-11-10 08:25:00,
2013-11-10 03:30:00,28.0,25.7,30.33,WNW,292,0.0,0.0,91,0.00,,,0.00,Wunderground v.1.15,2013-11-10 08:30:00,
2013-11-10 03:40:00,27.9,25.6,30.33,WNW,292,0.0,0.0,91,0.00,,,0.00,Wunderground v.1.15,2013-11-10 08:40:00,
2013-11-10 03:45:00,27.9,25.6,30.33,WNW,292,0.0,0.0,91,0.00,,,0.00,Wunderground v.1.15,2013-11-10 08:45:00,
2013-11-10 03:50:00,27.9,25.6,30.33,WNW,292,0.0,0.0,91,0.00,,,0.00,Wunderground v.1.15,2013-11-10 08:50:00,
2013-11-10 03:55:00,27.8,25.5,30.33,WNW,292,0.0,0.0,91,0.00,,,0.00,Wunderground v.1.15,2013-11-10 08:55:00,
2013-11-10 04:00:00,27.8,25.8,30.33,WNW,292,0.0,0.0,92,0.00,,,0.00,Wunderground v.1.15,2013-11-10 09:00:00,
2013-11-10 04:10:00,27.7,25.7,30.33,WNW,292,0.0,0.0,92,0.00,,,0.00,Wunderground v.1.15,2013-11-10 09:10:00,
2013-11-10 04:15:00,27.6,25.3,30.33,WNW,292,0.0,0.0,91,0.00,,,0.00,Wunderground v.1.15,2013-11-10 09:15:00,
2013-11-10 04:25:00,27.6,25.6,30.33,WNW,292,0.0,0.0,92,0.00,,,0.00,Wunderground v.1.15,2013-11-10 09:25:00,
2013-11-10 04:30:00,27.5,25.5,30.33,WNW,292,0.0,0.0,92,0.00,,,0.00,Wunderground v.1.15,2013-11-10 09:30:00,
2013-11-10 04:35:00,27.5,25.5,30.33,WNW,292,0.0,0.0,92,0.00,,,0.00,Wunderground v.1.15,2013-11-10 09:35:00,
2013-11-10 04:40:00,27.4,25.4,30.33,WNW,292,0.0,0.0,92,0.00,,,0.00,Wunderground v.1.15,2013-11-10 09:40:00,
2013-11-10 04:45:00,27.5,25.5,30.33,WNW,292,0.0,0.0,92,0.00,,,0.00,Wunderground v.1.15,2013-11-10 09:45:00,
2013-11-10 04:55:00,27.5,25.5,30.33,WNW,292,0.0,0.0,92,0.00,,,0.00,Wunderground v.1.15,2013-11-10 09:55:00,
2013-11-10 05:00:00,27.5,25.5,30.33,WNW,292,0.0,0.0,92,0.00,,,0.00,Wunderground v.1.15,2013-11-10 10:00:00,
2013-11-10 05:10:00,27.4,25.4,30.33,WNW,292,0.0,0.0,92,0.00,,,0.00,Wunderground v.1.15,2013-11-10 10:10:00,
2013-11-10 05:15:00,27.4,25.4,30.33,WNW,292,0.0,0.0,92,0.00,,,0.00,Wunderground v.1.15,2013-11-10 10:15:00,
2013-11-10 05:25:00,27.3,25.3,30.33,WNW,292,0.0,0.0,92,0.00,,,0.00,Wunderground v.1.15,2013-11-10 10:25:00,
2013-11-10 05:30:00,27.3,25.3,30.33,WNW,292,0.0,0.0,92,0.00,,,0.00,Wunderground v.1.15,2013-11-10 10:30:00,
2013-11-10 05:35:00,27.2,25.2,30.33,WNW,292,0.0,0.0,92,0.00,,,0.00,Wunderground v.1.15,2013-11-10 10:35:00,
2013-11-10 05:40:00,27.2,25.2,30.33,WNW,292,0.0,0.0,92,0.00,,,0.00,Wunderground v.1.15,2013-11-10 10:40:00,
2013-11-10 05:45:00,27.1,25.1,30.33,WNW,292,0.0,0.0,92,0.00,,,0.00,Wunderground v.1.15,2013-11-10 10:45:00,
2013-11-10 05:55:00,27.1,25.1,30.33,WNW,292,0.0,0.0,92,0.00,,,0.00,Wunderground v.1.15,2013-11-10 10:55:00,
2013-11-10 06:00:00,27.1,25.1,30.33,WNW,292,0.0,0.0,92,0.00,,,0.00,Wunderground v.1.15,2013-11-10 11:00:00,
2013-11-10 06:05:00,27.0,25.0,30.34,WNW,292,0.0,0.0,92,0.00,,,0.00,Wunderground v.1.15,2013-11-10 11:05:00,
2013-11-10 06:15:00,27.0,25.0,30.34,WNW,292,0.0,0.0,92,0.00,,,0.00,Wunderground v.1.15,2013-11-10 11:15:00,
2013-11-10 06:20:00,27.0,25.0,30.34,WNW,292,0.0,0.0,92,0.00,,,0.00,Wunderground v.1.15,2013-11-10 11:20:00,
2013-11-10 06:25:00,27.0,25.0,30.35,WNW,292,0.0,0.0,92,0.00,,,0.00,Wunderground v.1.15,2013-11-10 11:25:00,
2013-11-10 06:30:00,27.0,25.0,30.35,WNW,292,0.0,0.0,92,0.00,,,0.00,Wunderground v.1.15,2013-11-10 11:30:00,
2013-11-10 06:40:00,27.0,25.0,30.35,WNW,292,0.0,0.0,92,0.00,,,0.00,Wunderground v.1.15,2013-11-10 11:40:00,
2013-11-10 06:45:00,26.9,24.9,30.35,WNW,292,0.0,0.0,92,0.00,,,0.00,Wunderground v.1.15,2013-11-10 11:45:00,
2013-11-10 06:50:00,26.8,24.8,30.35,WNW,292,0.0,0.0,92,0.00,,,0.00,Wunderground v.1.15,2013-11-10 11:50:00,
2013-11-10 06:55:00,26.9,24.9,30.35,WNW,292,0.0,0.0,92,0.00,,,0.00,Wunderground v.1.15,2013-11-10 11:55:00,
2013-11-10 07:00:00,26.9,24.9,30.35,WNW,292,0.0,0.0,92,0.00,,,0.00,Wunderground v.1.15,2013-11-10 12:00:00,
2013-11-10 07:10:00,26.9,24.9,30.35,WNW,292,0.0,0.0,92,0.00,,,0.00,Wunderground v.1.15,2013-11-10 12:10:00,
2013-11-10 07:15:00,26.8,24.8,30.35,WNW,292,0.0,0.0,92,0.00,,,0.00,Wunderground v.1.15,2013-11-10 12:15:00,
2013-11-10 07:25:00,26.9,24.9,30.35,WNW,292,0.0,0.0,92,0.00,,,0.00,Wunderground v.1.15,2013-11-10 12:25:00,
2013-11-10 07:30:00,26.9,24.9,30.36,WNW,292,0.0,0.0,92,0.00,,,0.00,Wunderground v.1.15,2013-11-10 12:30:00,
2013-11-10 07:35:00,26.9,24.9,30.36,WNW,292,0.0,0.0,92,0.00,,,0.00,Wunderground v.1.15,2013-11-10 12:35:00,
2013-11-10 07:40:00,27.0,25.0,30.36,WNW,292,0.0,0.0,92,0.00,,,0.00,Wunderground v.1.15,2013-11-10 12:40:00,
2013-11-10 07:45:00,27.2,25.2,30.36,WNW,292,0.0,0.0,92,0.00,,,0.00,Wunderground v.1.15,2013-11-10 12:45:00,
2013-11-10 07:55:00,27.5,25.5,30.37,WNW,292,0.0,0.0,92,0.00,,,0.00,Wunderground v.1.15,2013-11-10 12:55:00,
2013-11-10 08:00:00,27.7,25.7,30.36,WNW,292,0.0,0.0,92,0.00,,,0.00,Wunderground v.1.15,2013-11-10 13:00:00,
2013-11-10 08:10:00,28.3,26.3,30.37,WNW,292,0.0,0.0,92,0.00,,,0.00,Wunderground v.1.15,2013-11-10 13:10:00,
2013-11-10 08:15:00,28.8,26.8,30.37,WNW,292,0.0,0.0,92,0.00,,,0.00,Wunderground v.1.15,2013-11-10 13:15:00,
2013-11-10 08:20:00,29.2,27.4,30.36,WNW,292,0.0,0.0,93,0.00,,,0.00,Wunderground v.1.15,2013-11-10 13:20:00,
2013-11-10 08:25:00,29.6,27.8,30.36,WNW,292,0.0,0.0,93,0.00,,,0.00,Wunderground v.1.15,2013-11-10 13:25:00,
2013-11-10 08:35:00,30.4,28.6,30.36,WNW,292,0.0,0.0,93,0.00,,,0.00,Wunderground v.1.15,2013-11-10 13:35:00,
2013-11-10 08:40:00,30.7,28.9,30.36,WNW,292,0.0,0.0,93,0.00,,,0.00,Wunderground v.1.15,2013-11-10 13:40:00,
2013-11-10 08:45:00,31.1,29.3,30.36,WNW,292,0.0,0.0,93,0.00,,,0.00,Wunderground v.1.15,2013-11-10 13:45:00,
2013-11-10 08:55:00,31.9,29.8,30.36,WNW,292,0.0,0.0,92,0.00,,,0.00,Wunderground v.1.15,2013-11-10 13:55:00,
2013-11-10 09:00:00,32.3,30.2,30.36,WNW,292,0.0,0.0,92,0.00,,,0.00,Wunderground v.1.15,2013-11-10 14:00:00,
2013-11-10 09:10:00,33.3,31.2,30.36,WNW,292,0.0,0.0,92,0.00,,,0.00,Wunderground v.1.15,2013-11-10 14:10:00,
2013-11-10 09:15:00,33.9,31.8,30.36,WSW,252,0.0,0.0,92,0.00,,,0.00,Wunderground v.1.15,2013-11-10 14:15:00,
2013-11-10 09:20:00,34.8,32.7,30.36,WSW,253,0.0,0.0,92,0.00,,,0.00,Wunderground v.1.15,2013-11-10 14:20:00,
2013-11-10 09:25:00,35.7,33.6,30.36,WNW,300,0.0,0.0,92,0.00,,,0.00,Wunderground v.1.15,2013-11-10 14:25:00,
2013-11-10 09:30:00,36.7,34.3,30.35,NW,317,0.0,1.0,91,0.00,,,0.00,Wunderground v.1.15,2013-11-10 14:30:00,
2013-11-10 09:40:00,39.3,36.6,30.35,WNW,288,1.0,1.0,90,0.00,,,0.00,Wunderground v.1.15,2013-11-10 14:40:00,
2013-11-10 09:45:00,41.1,37.5,30.35,NNW,347,2.0,2.0,87,0.00,,,0.00,Wunderground v.1.15,2013-11-10 14:45:00,
2013-11-10 09:55:00,43.8,37.7,30.35,NNW,336,4.0,4.0,79,0.00,,,0.00,Wunderground v.1.15,2013-11-10 14:55:00,
2013-11-10 10:05:00,44.9,38.1,30.35,NNW,334,3.0,7.0,77,0.00,,,0.00,Wunderground v.1.15,2013-11-10 15:05:00,
2013-11-10 10:10:00,45.8,38.3,30.34,WNW,291,3.0,3.0,75,0.00,,,0.00,Wunderground v.1.15,2013-11-10 15:10:00,
2013-11-10 10:15:00,46.7,38.5,30.34,NW,308,3.0,3.0,73,0.00,,,0.00,Wunderground v.1.15,2013-11-10 15:15:00,
2013-11-10 10:25:00,48.5,39.5,30.34,SW,225,2.0,2.0,71,0.00,,,0.00,Wunderground v.1.15,2013-11-10 15:25:00,
2013-11-10 10:30:00,49.1,39.4,30.34,North,360,2.0,5.0,69,0.00,,,0.00,Wunderground v.1.15,2013-11-10 15:30:00,
2013-11-10 10:40:00,49.7,39.2,30.33,NW,319,2.0,2.0,67,0.00,,,0.00,Wunderground v.1.15,2013-11-10 15:40:00,
2013-11-10 10:50:00,50.5,40.3,30.33,WNW,294,1.0,2.0,68,0.00,,,0.00,Wunderground v.1.15,2013-11-10 15:50:00,
2013-11-10 10:55:00,51.1,39.7,30.33,NW,308,1.0,2.0,65,0.00,,,0.00,Wunderground v.1.15,2013-11-10 15:55:00,
2013-11-10 11:00:00,51.7,39.9,30.33,West,278,1.0,3.0,64,0.00,,,0.00,Wunderground v.1.15,2013-11-10 16:00:00,
2013-11-10 11:10:00,52.7,40.9,30.32,NW,313,1.0,3.0,64,0.00,,,0.00,Wunderground v.1.15,2013-11-10 16:10:00,
2013-11-10 11:15:00,53.0,40.3,30.32,WNW,298,1.0,3.0,62,0.00,,,0.00,Wunderground v.1.15,2013-11-10 16:15:00,
2013-11-10 11:25:00,53.8,40.2,30.31,ESE,103,2.0,2.0,60,0.00,,,0.00,Wunderground v.1.15,2013-11-10 16:25:00,
2013-11-10 11:30:00,53.7,39.3,30.31,NNW,337,2.0,2.0,58,0.00,,,0.00,Wunderground v.1.15,2013-11-10 16:30:00,
2013-11-10 11:35:00,53.7,41.0,30.31,WSW,250,2.0,2.0,62,0.00,,,0.00,Wunderground v.1.15,2013-11-10 16:35:00,
2013-11-10 11:40:00,53.8,39.4,30.31,WNW,303,2.0,2.0,58,0.00,,,0.00,Wunderground v.1.15,2013-11-10 16:40:00,
2013-11-10 11:45:00,54.0,39.1,30.30,NW,313,4.0,4.0,57,0.00,,,0.00,Wunderground v.1.15,2013-11-10 16:45:00,
2013-11-10 11:55:00,54.7,39.8,30.30,NNE,27,2.0,3.0,57,0.00,,,0.00,Wunderground v.1.15,2013-11-10 16:55:00,
2013-11-10 12:00:00,55.0,40.0,30.30,West,263,3.0,3.0,57,0.00,,,0.00,Wunderground v.1.15,2013-11-10 17:00:00,
2013-11-10 12:05:00,55.5,39.6,30.29,WNW,288,3.0,4.0,55,0.00,,,0.00,Wunderground v.1.15,2013-11-10 17:05:00,
2013-11-10 12:10:00,55.9,39.5,30.29,NW,306,3.0,13.0,54,0.00,,,0.00,Wunderground v.1.15,2013-11-10 17:10:00,
2013-11-10 12:15:00,56.2,40.7,30.28,NNW,338,4.0,13.0,56,0.00,,,0.00,Wunderground v.1.15,2013-11-10 17:15:00,
2013-11-10 12:25:00,56.7,38.8,30.28,West,267,4.0,5.0,51,0.00,,,0.00,Wunderground v.1.15,2013-11-10 17:25:00,
2013-11-10 12:30:00,57.1,39.1,30.27,NE,35,3.0,3.0,51,0.00,,,0.00,Wunderground v.1.15,2013-11-10 17:30:00,
2013-11-10 12:40:00,57.6,38.0,30.27,WNW,297,5.0,7.0,48,0.00,,,0.00,Wunderground v.1.15,2013-11-10 17:40:00,
2013-11-10 12:45:00,57.5,37.9,30.26,NNE,24,6.0,7.0,48,0.00,,,0.00,Wunderground v.1.15,2013-11-10 17:45:00,
2013-11-10 12:55:00,58.4,38.2,30.26,WNW,303,6.0,12.0,47,0.00,,,0.00,Wunderground v.1.15,2013-11-10 17:55:00,
2013-11-10 13:00:00,58.2,36.9,30.26,West,279,8.0,8.0,45,0.00,,,0.00,Wunderground v.1.15,2013-11-10 18:00:00,
2013-11-10 13:05:00,58.5,37.2,30.25,NE,38,7.0,8.0,45,0.00,,,0.00,Wunderground v.1.15,2013-11-10 18:05:00,
2013-11-10 13:10:00,59.2,37.9,30.25,NNW,333,5.0,8.0,45,0.00,,,0.00,Wunderground v.1.15,2013-11-10 18:10:00,
2013-11-10 13:15:00,59.6,37.6,30.25,NW,326,5.0,8.0,44,0.00,,,0.00,Wunderground v.1.15,2013-11-10 18:15:00,
2013-11-10 13:25:00,59.7,35.9,30.25,West,271,8.0,10.0,41,0.00,,,0.00,Wunderground v.1.15,2013-11-10 18:25:00,
2013-11-10 13:30:00,59.8,35.4,30.25,NW,312,7.0,7.0,40,0.00,,,0.00,Wunderground v.1.15,2013-11-10 18:30:00,
2013-11-10 13:40:00,59.8,32.8,30.25,West,279,8.0,8.0,36,0.00,,,0.00,Wunderground v.1.15,2013-11-10 18:40:00,
2013-11-10 13:45:00,60.0,32.9,30.25,WNW,290,9.0,12.0,36,0.00,,,0.00,Wunderground v.1.15,2013-11-10 18:45:00,
2013-11-10 13:50:00,60.0,30.8,30.25,WNW,301,8.0,8.0,33,0.00,,,0.00,Wunderground v.1.15,2013-11-10 18:50:00,
2013-11-10 13:55:00,59.6,31.2,30.25,NNW,336,8.0,8.0,34,0.00,,,0.00,Wunderground v.1.15,2013-11-10 18:55:00,
2013-11-10 14:00:00,59.5,29.6,30.25,WNW,287,9.0,9.0,32,0.00,,,0.00,Wunderground v.1.15,2013-11-10 19:00:00,
2013-11-10 14:10:00,59.5,30.3,30.25,WNW,293,8.0,8.0,33,0.00,,,0.00,Wunderground v.1.15,2013-11-10 19:10:00,
2013-11-10 14:15:00,59.5,31.1,30.25,NW,311,8.0,11.0,34,0.00,,,0.00,Wunderground v.1.15,2013-11-10 19:15:00,
2013-11-10 14:25:00,59.7,29.8,30.25,West,278,8.0,8.0,32,0.00,,,0.00,Wunderground v.1.15,2013-11-10 19:25:00,
2013-11-10 14:30:00,59.7,31.3,30.25,NW,312,6.0,9.0,34,0.00,,,0.00,Wunderground v.1.15,2013-11-10 19:30:00,
2013-11-10 14:35:00,59.8,30.6,30.25,NW,326,5.0,9.0,33,0.00,,,0.00,Wunderground v.1.15,2013-11-10 19:35:00,
2013-11-10 14:40:00,59.6,31.2,30.25,WNW,294,6.0,11.0,34,0.00,,,0.00,Wunderground v.1.15,2013-11-10 19:40:00,
2013-11-10 14:45:00,59.4,30.3,30.25,NW,314,6.0,11.0,33,0.00,,,0.00,Wunderground v.1.15,2013-11-10 19:45:00,
2013-11-10 14:55:00,59.4,28.7,30.25,WNW,300,6.0,9.0,31,0.00,,,0.00,Wunderground v.1.15,2013-11-10 19:55:00,
2013-11-10 15:00:00,58.9,28.3,30.25,NW,306,7.0,7.0,31,0.00,,,0.00,Wunderground v.1.15,2013-11-10 20:00:00,
2013-11-10 15:10:00,58.4,27.1,30.25,WNW,293,8.0,8.0,30,0.00,,,0.00,Wunderground v.1.15,2013-11-10 20:10:00,
2013-11-10 15:15:00,58.1,28.4,30.26,WNW,284,7.0,9.0,32,0.00,,,0.00,Wunderground v.1.15,2013-11-10 20:15:00,
2013-11-10 15:20:00,58.1,26.8,30.25,NW,314,8.0,8.0,30,0.00,,,0.00,Wunderground v.1.15,2013-11-10 20:20:00,
2013-11-10 15:25:00,58.2,27.7,30.25,NW,315,7.0,8.0,31,0.00,,,0.00,Wunderground v.1.15,2013-11-10 20:25:00,
2013-11-10 15:30:00,58.0,28.3,30.26,WNW,298,6.0,7.0,32,0.00,,,0.00,Wunderground v.1.15,2013-11-10 20:30:00,
2013-11-10 15:40:00,57.7,25.6,30.26,WNW,292,7.0,7.0,29,0.00,,,0.00,Wunderground v.1.15,2013-11-10 20:40:00,
2013-11-10 15:45:00,57.7,28.0,30.26,West,275,5.0,7.0,32,0.00,,,0.00,Wunderground v.1.15,2013-11-10 20:45:00,
2013-11-10 15:50:00,57.3,27.7,30.26,NW,310,4.0,4.0,32,0.00,,,0.00,Wunderground v.1.15,2013-11-10 20:50:00,
2013-11-10 15:55:00,56.6,27.8,30.26,West,263,4.0,5.0,33,0.00,,,0.00,Wunderground v.1.15,2013-11-10 20:55:00,
2013-11-10 16:00:00,57.0,25.8,30.27,WNW,294,5.0,8.0,30,0.00,,,0.00,Wunderground v.1.15,2013-11-10 21:00:00,
2013-11-10 16:10:00,57.0,27.4,30.26,WNW,303,4.0,4.0,32,0.00,,,0.00,Wunderground v.1.15,2013-11-10 21:10:00,
2013-11-10 16:15:00,56.6,27.0,30.27,West,267,3.0,6.0,32,0.00,,,0.00,Wunderground v.1.15,2013-11-10 21:15:00,
2013-11-10 16:25:00,55.1,26.5,30.27,North,351,3.0,5.0,33,0.00,,,0.00,Wunderground v.1.15,2013-11-10 21:25:00,
2013-11-10 16:30:00,55.1,26.5,30.27,West,259,3.0,3.0,33,0.00,,,0.00,Wunderground v.1.15,2013-11-10 21:30:00,
2013-11-10 16:35:00,55.1,26.5,30.27,WSW,248,4.0,6.0,33,0.00,,,0.00,Wunderground v.1.15,2013-11-10 21:35:00,
2013-11-10 16:40:00,55.4,24.4,30.28,NNW,327,6.0,6.0,30,0.00,,,0.00,Wunderground v.1.15,2013-11-10 21:40:00,
2013-11-10 16:45:00,55.5,26.8,30.28,NW,317,6.0,6.0,33,0.00,,,0.00,Wunderground v.1.15,2013-11-10 21:45:00,
2013-11-10 16:55:00,54.3,25.8,30.29,WNW,292,3.0,4.0,33,0.00,,,0.00,Wunderground v.1.15,2013-11-10 21:55:00,
2013-11-10 17:00:00,53.3,28.3,30.29,West,279,2.0,3.0,38,0.00,,,0.00,Wunderground v.1.15,2013-11-10 22:00:00,
2013-11-10 17:10:00,52.6,27.0,30.29,WNW,292,2.0,2.0,37,0.00,,,0.00,Wunderground v.1.15,2013-11-10 22:10:00,
2013-11-10 17:15:00,52.4,26.2,30.29,WSW,238,2.0,4.0,36,0.00,,,0.00,Wunderground v.1.15,2013-11-10 22:15:00,
2013-11-10 17:20:00,53.0,27.4,30.29,NW,313,3.0,8.0,37,0.00,,,0.00,Wunderground v.1.15,2013-11-10 22:20:00,
2013-11-10 17:25:00,52.6,25.7,30.30,WNW,284,4.0,8.0,35,0.00,,,0.00,Wunderground v.1.15,2013-11-10 22:25:00,
2013-11-10 17:30:00,52.8,27.9,30.30,WNW,285,3.0,3.0,38,0.00,,,0.00,Wunderground v.1.15,2013-11-10 22:30:00,
2013-11-10 17:40:00,50.5,28.8,30.30,West,279,1.0,1.0,43,0.00,,,0.00,Wunderground v.1.15,2013-11-10 22:40:00,
2013-11-10 17:45:00,49.4,28.4,30.31,WNW,288,1.0,1.0,44,0.00,,,0.00,Wunderground v.1.15,2013-11-10 22:45:00,
2013-11-10 17:55:00,47.5,29.8,30.31,WNW,301,1.0,3.0,50,0.00,,,0.00,Wunderground v.1.15,2013-11-10 22:55:00,
2013-11-10 18:00:00,46.7,29.5,30.31,SW,233,1.0,1.0,51,0.00,,,0.00,Wunderground v.1.15,2013-11-10 23:00:00,
2013-11-10 18:05:00,46.5,28.8,30.31,SW,235,1.0,2.0,50,0.00,,,0.00,Wunderground v.1.15,2013-11-10 23:05:00,
2013-11-10 18:10:00,46.6,29.4,30.32,WNW,293,1.0,4.0,51,0.00,,,0.00,Wunderground v.1.15,2013-11-10 23:10:00,
2013-11-10 18:15:00,45.9,30.2,30.32,WNW,297,2.0,4.0,54,0.00,,,0.00,Wunderground v.1.15,2013-11-10 23:15:00,
2013-11-10 18:25:00,45.4,29.3,30.33,WNW,292,1.0,1.0,53,0.00,,,0.00,Wunderground v.1.15,2013-11-10 23:25:00,
2013-11-10 18:35:00,44.1,29.4,30.33,WNW,289,0.0,1.0,56,0.00,,,0.00,Wunderground v.1.15,2013-11-10 23:35:00,
2013-11-10 18:40:00,43.8,29.5,30.33,WNW,289,0.0,0.0,57,0.00,,,0.00,Wunderground v.1.15,2013-11-10 23:40:00,
2013-11-10 18:45:00,43.4,29.6,30.34,WNW,284,0.0,1.0,58,0.00,,,0.00,Wunderground v.1.15,2013-11-10 23:45:00,
2013-11-10 18:55:00,42.9,28.7,30.34,West,275,0.0,1.0,57,0.00,,,0.00,Wunderground v.1.15,2013-11-10 23:55:00,
2013-11-10 19:00:00,42.7,28.5,30.34,NW,314,1.0,1.0,57,0.00,,,0.00,Wunderground v.1.15,2013-11-11 00:00:00,
2013-11-10 19:05:00,42.7,28.5,30.35,WNW,286,2.0,3.0,57,0.00,,,0.00,Wunderground v.1.15,2013-11-11 00:05:00,
2013-11-10 19:10:00,43.2,29.4,30.35,SSW,200,2.0,2.0,58,0.00,,,0.00,Wunderground v.1.15,2013-11-11 00:10:00,
2013-11-10 19:15:00,43.5,27.9,30.35,NW,307,2.0,2.0,54,0.00,,,0.00,Wunderground v.1.15,2013-11-11 00:15:00,
2013-11-10 19:25:00,43.3,28.6,30.35,SW,218,3.0,3.0,56,0.00,,,0.00,Wunderground v.1.15,2013-11-11 00:25:00,
2013-11-10 19:30:00,42.8,29.0,30.35,WSW,257,2.0,2.0,58,0.00,,,0.00,Wunderground v.1.15,2013-11-11 00:30:00,
2013-11-10 19:40:00,42.3,28.6,30.36,West,269,1.0,1.0,58,0.00,,,0.00,Wunderground v.1.15,2013-11-11 00:40:00,
2013-11-10 19:45:00,42.0,29.1,30.36,WSW,238,1.0,1.0,60,0.00,,,0.00,Wunderground v.1.15,2013-11-11 00:45:00,
2013-11-10 19:55:00,40.9,28.5,30.36,NW,325,2.0,4.0,61,0.00,,,0.00,Wunderground v.1.15,2013-11-11 00:55:00,
2013-11-10 20:00:00,41.2,28.8,30.36,WNW,300,2.0,2.0,61,0.00,,,0.00,Wunderground v.1.15,2013-11-11 01:00:00,
2013-11-10 20:10:00,39.8,28.6,30.37,WNW,292,2.0,2.0,64,0.00,,,0.00,Wunderground v.1.15,2013-11-11 01:10:00,
2013-11-10 20:15:00,39.7,28.5,30.36,NNE,17,2.0,2.0,64,0.00,,,0.00,Wunderground v.1.15,2013-11-11 01:15:00,
2013-11-10 20:25:00,39.5,28.3,30.37,NW,319,1.0,2.0,64,0.00,,,0.00,Wunderground v.1.15,2013-11-11 01:25:00,
2013-11-10 20:30:00,39.3,28.5,30.37,NW,309,1.0,3.0,65,0.00,,,0.00,Wunderground v.1.15,2013-11-11 01:30:00,
2013-11-10 20:35:00,38.8,28.8,30.37,NW,307,1.0,3.0,67,0.00,,,0.00,Wunderground v.1.15,2013-11-11 01:35:00,
2013-11-10 20:40:00,38.7,28.3,30.37,WSW,239,2.0,2.0,66,0.00,,,0.00,Wunderground v.1.15,2013-11-11 01:40:00,
2013-11-10 20:45:00,38.6,28.2,30.38,WSW,239,1.0,2.0,66,0.00,,,0.00,Wunderground v.1.15,2013-11-11 01:45:00,
2013-11-10 20:55:00,38.0,28.7,30.38,WSW,239,0.0,0.0,69,0.00,,,0.00,Wunderground v.1.15,2013-11-11 01:55:00,
2013-11-10 21:05:00,37.2,28.7,30.38,WSW,243,0.0,0.0,71,0.00,,,0.00,Wunderground v.1.15,2013-11-11 02:05:00,
2013-11-10 21:10:00,36.8,28.3,30.38,WSW,243,0.0,0.0,71,0.00,,,0.00,Wunderground v.1.15,2013-11-11 02:10:00,
2013-11-10 21:15:00,36.4,28.2,30.39,WSW,243,0.0,0.0,72,0.00,,,0.00,Wunderground v.1.15,2013-11-11 02:15:00,
2013-11-10 21:25:00,35.5,28.4,30.39,WSW,243,1.0,1.0,75,0.00,,,0.00,Wunderground v.1.15,2013-11-11 02:25:00,
2013-11-10 21:30:00,35.4,28.3,30.39,WSW,243,1.0,1.0,75,0.00,,,0.00,Wunderground v.1.15,2013-11-11 02:30:00,
2013-11-10 21:35:00,35.2,28.4,30.39,WSW,243,0.0,1.0,76,0.00,,,0.00,Wunderground v.1.15,2013-11-11 02:35:00,
2013-11-10 21:40:00,34.7,28.2,30.40,NW,304,1.0,1.0,77,0.00,,,0.00,Wunderground v.1.15,2013-11-11 02:40:00,
2013-11-10 21:45:00,34.7,28.2,30.40,NW,304,1.0,1.0,77,0.00,,,0.00,Wunderground v.1.15,2013-11-11 02:45:00,
2013-11-10 21:55:00,34.3,27.8,30.40,NW,304,0.0,0.0,77,0.00,,,0.00,Wunderground v.1.15,2013-11-11 02:55:00,
2013-11-10 22:00:00,33.8,27.7,30.40,NW,304,0.0,0.0,78,0.00,,,0.00,Wunderground v.1.15,2013-11-11 03:00:00,
2013-11-10 22:10:00,33.5,27.7,30.40,NW,304,0.0,1.0,79,0.00,,,0.00,Wunderground v.1.15,2013-11-11 03:10:00,
2013-11-10 22:15:00,33.0,27.2,30.40,NW,304,0.0,1.0,79,0.00,,,0.00,Wunderground v.1.15,2013-11-11 03:15:00,
2013-11-10 22:20:00,32.8,27.3,30.40,NW,304,0.0,0.0,80,0.00,,,0.00,Wunderground v.1.15,2013-11-11 03:20:00,
2013-11-10 22:25:00,32.4,27.2,30.39,NW,304,0.0,0.0,81,0.00,,,0.00,Wunderground v.1.15,2013-11-11 03:25:00,
2013-11-10 22:30:00,32.1,26.9,30.39,NW,304,0.0,0.0,81,0.00,,,0.00,Wunderground v.1.15,2013-11-11 03:30:00,
2013-11-10 22:40:00,31.9,27.0,30.39,WNW,291,0.0,1.0,82,0.00,,,0.00,Wunderground v.1.15,2013-11-11 03:40:00,
2013-11-10 22:45:00,31.6,26.7,30.39,WNW,291,1.0,2.0,82,0.00,,,0.00,Wunderground v.1.15,2013-11-11 03:45:00,
2013-11-10 22:55:00,31.8,26.6,30.39,West,279,1.0,3.0,81,0.00,,,0.00,Wunderground v.1.15,2013-11-11 03:55:00,
2013-11-10 23:00:00,32.3,27.1,30.39,West,279,1.0,1.0,81,0.00,,,0.00,Wunderground v.1.15,2013-11-11 04:00:00,
2013-11-10 23:10:00,31.7,26.5,30.38,WNW,298,0.0,0.0,81,0.00,,,0.00,Wunderground v.1.15,2013-11-11 04:10:00,
2013-11-10 23:15:00,31.5,26.3,30.38,WNW,298,0.0,0.0,81,0.00,,,0.00,Wunderground v.1.15,2013-11-11 04:15:00,
2013-11-10 23:20:00,31.0,25.9,30.38,WNW,298,0.0,0.0,81,0.00,,,0.00,Wunderground v.1.15,2013-11-11 04:20:00,
2013-11-10 23:25:00,30.8,26.0,30.38,WNW,298,0.0,0.0,82,0.00,,,0.00,Wunderground v.1.15,2013-11-11 04:25:00,
2013-11-10 23:30:00,30.8,26.0,30.38,WNW,298,0.0,0.0,82,0.00,,,0.00,Wunderground v.1.15,2013-11-11 04:30:00,
2013-11-10 23:40:00,30.3,25.8,30.37,WNW,298,0.0,0.0,83,0.00,,,0.00,Wunderground v.1.15,2013-11-11 04:40:00,
2013-11-10 23:45:00,30.1,25.8,30.37,WNW,292,0.0,2.0,84,0.00,,,0.00,Wunderground v.1.15,2013-11-11 04:45:00,
2013-11-10 23:55:00,30.1,26.1,30.36,SW,223,1.0,2.0,85,0.00,,,0.00,Wunderground v.1.15,2013-11-11 04:55:00,